Location: Libas
(9.8833°N, 125.9833°E)
Time: 20:26:11
(UTC+00:00)

SEDSat Delta rocket - Pass Details

Date: 27 October 2020
Orbit: 533 x 1000 km, 31.4° (Epoch: 25 November)

Event Time Altitude Azimuth Distance (km) Brightness Sun altitude
Exits shadow 20:43:28 13° 256° (WSW) 1,608 4.6 -11.0°
Maximum altitude 20:45:51 20° 214° (SW) 1,259 4.4 -10.4°
Drops below altitude 10° 20:48:51 10° 166° (SSE) 1,773 5.8 -9.7°
Sets 20:51:34 0° 148° (SSE) 2,686 7.0 -9.0°
